SCP
0 0 0 0 0 0 0 0 0 0 0 0 0 0 0 0 0 0 0 0 0 0 0 0 0 0 0 0 0 0 0 0 0 0 0 0 0 0 0 0 1 0 0
0 0 0 0 0 0 0 0 0 0 0 0 0 0 0 0 0 0 0 0 0 0 0 0 0 0 0 0 0 0 0 0 0 0 0 0 0 0 0 0 0 1 0
0 0 0 0 0 0 0 0 0 0 0 0 0 0 0 0 0 0 0 0 0 0 0 0 0 0 0 0 0 0 0 0 0 0 0 0 0 0 0 0 0 0 1
0 0 0 0 0 0 0 0 0 0 0 0 0 0 0 0 0 0 0 0 0 0 0 0 0 0 0 0 0 0 0 0 0 0 0 0 0 0 0 0 0 0 0
0 0 0 0 0 0 0 0 0 0 0 0 0 0 0 0 0 0 0 0 0 0 0 0 0 0 0 0 0 0 0 0 0 0 0 0 0 0 0 0 0 0 0
0 0 0 0 0 0 0 0 0 0 0 0 0 0 0 0 0 0 0 0 0 0 0 0 0 0 0 0 0 0 0 0 0 0 0 0 0 0 0 0 0 0 0
0 0 0 0 0 0 0 0 0 0 0 0 -0 0 0 0 0 0 0 0 0 0 0 0 0 0 0 0 0 0 0 0 0 0 0 0 0 0 0 0 0 0 0
0 0 0 0 0 0 0 0 0 0 0 0 -0 -0 0 0 0 0 0 0 0 0 0 0 0 0 0 0 0 0 0 0 0 0 0 0 0 0 0 0 0 0 0
0 0 0 0 0 0 0 0 0 0 0 0 0 -0 -0 0 0 0 0 0 0 0 0 0 0 0 0 0 0 0 0 0 0 0 0 0 0 0 0 0 0 0 0
0 0 0 0 0 0 0 0 0 0 0 0 0 0 0 0 -0 -0 0 0 0 0 0 0 0 0 0 0 0 0 0 0 0 0 0 0 0 0 0 0 0 0 0
0 0 0 0 0 0 0 0 0 0 0 0 0 0 0 0 0 0 0 0 0 0 0 0 0 0 0 0 0 0 -0 -0 0 0 0 0 0 0 0 0 0 0 0
0 0 0 0 0 0 0 0 0 0 0 0 0 0 0 0 0 0 0 0 0 0 0 0 0 -0 -0 -0 -0 -0 -0 -0 -0 -0 -0 -0 -0 -0 0 0 0 0 0
0 0 0 0 0 0 0 0 0 0 0 0 0 0 0 0 0 0 0 0 0 0 -0 -0 -0 -0 -0 -0 -0 -0 -0 -0 -0 -0 -0 -0 -0 -0 -0 0 0 0 0
0 0 0 0 0 0 0 0 0 0 0 0 0 0 0 0 0 0 0 0 0 -0 -0 -0 -0 -0 0 -0 -0 0 0 -0 -0 -0 -0 -0 -0 -0 -0 -0 -0 0 0
0 0 0 0 0 0 0 0 0 0 0 0 0 0 0 0 0 0 0 0 0 0 -0 -0 -0 0 0 0 0 -0 -0 -0 -0 -0 -0 0 -0 -0 -0 -0 -0 -0 0
0 0 0 0 0 0 0 0 0 0 0 0 0 0 0 0 0 0 0 0 0 0 0 0 0 0 0 0 0 -0 -0 -0 -0 -0 -0 0 0 0 0 0 0 0 0
0 0 0 0 0 0 0 0 0 0 0 0 0 0 0 0 0 0 0 0 0 0 0 0 0 0 0 0 0 -0 0 0 0 0 0 0 0 0 0 0 0 0 0
0 0 0 0 0 0 0 0 0 0 0 0 0 0 0 0 0 0 0 0 0 0 0 0 0 0 0 0 0 0 0 0 0 0 0 0 0 0 0 0 0 0 0
0 0 0 0 0 0 0 0 0 0 0 0 0 0 0 0 0 0 0 0 0 0 0 0 0 0 0 0 0 0 0 0 0 0 0 0 0 0 0 0 0 0 0
0 0 0 0 0 0 0 0 0 0 0 0 0 0 0 0 0 0 0 0 0 0 0 0 0 0 0 0 0 0 0 0 0 0 0 0 0 0 0 0 0 0 0
0 0 0 0 0 0 0 0 0 0 0 0 0 0 0 0 0 0 0 0 0 0 0 0 0 0 0 0 0 0 0 0 0 0 0 0 0 0 0 0 0 0 0
0 0 0 0 0 0 0 0 0 0 0 0 0 0 0 0 0 0 0 0 0 0 0 0 0 0 0 0 0 0 0 0 0 0 0 0 0 0 0 0 0 0 0
0 0 0 0 0 0 0 0 0 0 0 0 0 0 0 0 0 0 0 0 0 0 0 0 0 0 0 0 0 0 0 0 0 0 0 0 0 0 0 0 0 0 0
0 0 0 0 0 0 0 0 0 0 0 0 0 0 0 0 0 0 0 0 0 0 0 0 0 0 0 0 0 0 0 0 0 0 0 0 0 0 0 0 0 0 0
0 0 0 0 0 0 0 0 0 0 0 0 0 0 0 0 0 0 0 0 0 0 0 0 0 0 0 0 0 0 0 0 0 0 0 0 0 0 0 0 0 0 0
0 0 0 0 0 0 0 0 0 0 0 0 0 0 0 0 0 0 0 0 0 0 0 0 0 0 0 0 0 0 0 0 0 0 0 0 0 0 0 0 0 0 0
Wind_Speed_500mb
32 29 26 25 26 24 24 24 25 26 26 27 28 27 25 24 23 24 23 27 28 28 29 29 31 32 34 35 34 36 38 41 45 52 49 49 47 44 41 41 43 47 50
38 36 32 29 28 26 26 27 28 28 29 29 27 24 23 22 22 23 23 24 28 30 30 29 30 30 30 31 31 33 35 36 40 42 52 60 56 52 48 46 45 45 50
44 40 37 35 32 29 29 30 30 30 30 30 28 24 23 22 21 21 19 17 19 24 27 26 23 17 16 19 21 22 25 30 33 39 44 47 60 62 58 55 51 50 48
49 45 41 38 34 32 33 33 32 31 31 31 28 26 24 22 20 15 17 14 15 18 18 16 14 18 21 18 16 18 24 28 34 37 43 46 45 55 66 64 60 55 54
53 49 45 43 38 37 37 36 35 34 34 34 34 30 28 25 16 13 3 1 12 12 16 21 21 23 22 34 26 37 40 37 37 38 40 42 48 51 54 67 72 68 60
57 55 52 48 42 40 39 36 35 35 37 39 40 37 34 26 16 2 4 24 21 16 18 23 22 21 23 32 45 47 47 46 47 44 44 44 45 48 52 58 65 75 76
63 60 57 52 47 43 40 38 35 34 35 39 43 41 33 16 10 3 37 16 30 19 19 22 22 34 42 46 50 53 50 49 51 51 49 48 48 49 52 55 55 64 75
69 66 62 56 50 47 44 39 35 34 35 35 36 43 20 26 10 41 20 36 12 37 27 31 42 49 59 55 53 53 53 54 53 53 54 56 55 54 54 55 57 62 63
73 70 64 60 55 51 45 40 36 35 34 33 30 22 14 11 54 21 43 27 51 37 42 47 52 54 50 53 52 49 48 52 54 54 55 54 57 60 62 64 64 66 63
77 74 69 64 59 54 49 43 39 38 37 34 31 29 27 32 26 35 44 56 54 62 60 59 57 60 57 53 52 56 55 54 57 59 63 64 64 66 66 68 70 72 72
80 76 72 67 65 60 55 50 44 41 39 36 33 31 31 33 34 33 63 72 73 71 72 71 74 70 67 63 63 60 65 71 74 79 80 80 78 76 73 73 74 76 77
83 80 76 73 69 64 59 52 47 43 40 37 35 34 34 35 37 35 46 66 70 77 82 80 78 80 74 70 69 71 84 86 88 92 94 93 92 89 86 81 80 80 82
89 88 81 78 74 67 61 55 50 45 41 38 37 37 38 40 39 41 50 64 69 84 83 86 79 84 75 74 76 90 95 97 97 100 102 102 100 98 97 92 88 85 85
84 79 78 77 73 69 65 60 54 46 41 40 40 40 39 42 42 43 45 54 79 77 85 59 80 77 62 87 97 96 102 104 104 104 106 109 109 110 109 94 95 98 96
82 78 75 76 74 72 68 62 55 48 44 44 44 44 44 44 43 43 43 46 50 57 79 57 71 75 99 103 102 105 106 108 108 110 112 113 116 117 112 107 92 89 87
82 79 76 78 77 74 69 64 58 52 48 47 46 46 46 46 46 44 45 48 51 60 84 89 101 107 106 110 110 112 115 115 115 115 114 113 111 109 109 100 92 90 90
83 77 77 81 82 77 73 67 60 56 52 49 48 48 47 47 45 45 49 52 56 62 87 126 109 112 114 116 114 113 117 119 120 116 110 102 99 97 89 92 93 92 93
89 79 77 80 81 79 74 69 65 59 53 51 50 48 46 47 46 47 52 56 61 65 77 110 121 117 120 116 115 117 118 118 114 114 110 92 86 87 93 92 91 90 91
92 83 80 82 83 82 78 73 67 62 56 52 50 49 46 45 48 49 53 60 64 69 76 90 122 115 117 114 116 116 115 111 112 104 91 90 88 86 88 87 87 87 87
92 86 84 84 84 84 81 76 71 64 59 53 51 48 45 47 48 50 54 59 64 69 73 84 103 116 112 107 96 100 112 103 106 99 101 97 95 97 90 89 89 92 94
91 86 85 85 86 87 85 80 72 65 59 52 49 45 46 45 49 49 54 57 61 65 68 80 92 102 104 101 94 99 108 115 114 93 103 103 103 104 105 86 84 74 71
89 86 85 87 89 89 84 79 69 61 58 52 46 43 44 50 49 48 50 51 49 54 64 76 86 92 115 101 103 108 110 110 127 101 87 103 95 109 105 96 88 88 86
88 86 88 88 89 87 80 74 68 62 57 50 44 44 52 48 46 50 52 54 48 52 57 66 85 94 110 104 107 115 113 112 128 124 103 119 106 110 108 112 92 89 96
87 88 90 89 87 83 80 75 68 62 54 45 43 52 47 45 43 50 51 53 58 63 67 69 81 89 95 101 98 106 116 114 121 123 89 105 109 108 106 110 96 89 87
89 91 90 88 87 84 84 77 69 59 49 42 51 48 44 39 43 43 43 52 61 71 73 68 73 77 77 85 94 96 108 100 116 124 89 90 111 102 98 108 99 90 87
84 84 84 85 84 81 80 73 67 55 45 53 49 43 34 37 40 36 41 53 68 68 70 73 80 86 87 84 77 66 76 90 95 112 77 76 92 89 98 84 73 77 90
Wind_Direction_500mb
234 239 243 251 258 266 275 284 293 302 308 309 305 302 298 295 293 287 288 289 287 282 279 280 280 275 274 275 276 276 278 276 267 253 248 247 245 245 247 254 260 262 261
235 238 243 250 255 259 268 277 285 294 303 307 308 305 301 298 296 292 291 290 289 287 284 283 284 290 291 292 291 289 285 281 279 272 260 256 253 253 252 254 254 259 262
237 239 244 249 254 262 269 277 284 293 301 309 317 313 306 303 297 297 296 290 286 284 282 280 282 288 300 299 307 305 302 292 287 279 273 262 255 249 248 250 256 257 260
236 239 243 248 252 259 267 274 281 289 299 310 320 321 317 311 306 306 296 290 292 288 282 278 283 295 302 304 300 300 305 291 289 287 281 277 271 260 251 246 247 250 254
235 238 241 245 250 257 264 272 279 288 297 306 313 322 321 313 307 310 214 150 322 301 287 294 294 312 306 311 301 317 317 306 299 296 289 287 281 272 264 252 249 248 250
235 238 240 243 247 254 261 268 277 286 295 303 310 319 323 314 313 220 314 318 326 335 311 298 293 300 311 304 302 306 306 308 300 297 291 285 281 283 278 269 259 253 248
236 237 239 241 244 252 259 266 276 288 298 305 310 312 321 306 286 202 330 335 325 345 316 303 300 304 304 301 302 303 303 301 298 298 293 290 286 282 279 280 272 263 255
235 236 238 240 241 246 253 263 273 285 293 303 315 325 329 317 254 317 306 325 328 335 319 304 304 305 307 304 305 304 305 305 305 304 300 296 293 291 285 280 274 270 266
234 236 237 239 241 245 250 258 268 277 286 297 309 321 327 308 317 314 315 318 321 321 314 309 307 307 307 308 308 308 307 306 307 308 305 302 298 294 289 287 285 275 271
235 236 237 238 240 244 248 253 259 268 277 286 296 303 301 301 314 312 307 312 317 318 317 317 317 317 319 319 316 315 315 316 316 315 313 309 303 299 294 288 286 284 279
236 237 238 238 239 241 244 248 255 263 271 278 286 291 292 296 294 286 300 313 314 318 319 320 320 320 320 318 318 318 322 322 319 317 315 312 309 304 298 293 289 284 281
237 237 237 238 238 239 243 248 253 259 266 272 277 284 289 291 293 290 287 298 305 313 316 317 317 318 319 319 322 324 322 320 319 316 314 311 309 306 301 296 289 283 280
235 236 235 236 236 238 240 243 249 257 266 273 278 281 285 288 289 290 293 302 305 309 316 314 314 316 319 319 321 323 319 318 315 312 311 309 307 303 301 297 291 285 277
241 240 238 237 237 237 237 239 244 250 260 269 274 278 278 283 286 291 296 303 310 311 313 314 319 315 314 315 318 317 313 310 309 307 305 304 301 300 297 293 289 285 280
243 241 241 240 237 236 237 239 242 246 253 261 268 271 276 280 283 289 294 298 301 303 306 304 310 309 308 309 312 313 309 305 303 301 301 301 300 297 293 291 285 281 277
243 240 239 238 235 236 237 238 240 244 249 255 261 265 272 276 281 288 292 295 295 296 294 297 299 303 305 308 312 310 307 305 303 304 303 301 297 293 290 287 283 279 275
245 241 237 235 235 236 237 236 238 243 248 254 260 262 269 275 283 290 292 293 294 295 293 299 301 304 305 308 307 306 305 305 306 306 305 302 294 290 289 284 280 275 273
243 241 236 234 235 237 237 238 239 243 246 252 257 262 269 276 283 287 291 293 294 294 294 297 300 303 303 306 308 308 308 307 305 307 307 301 293 290 288 283 278 275 273
242 239 235 234 235 235 236 236 240 242 246 251 255 262 270 276 282 286 290 293 294 294 295 295 297 301 303 308 312 309 306 304 304 303 296 293 291 289 286 281 276 273 272
240 237 236 235 234 234 234 235 237 241 245 247 252 260 269 276 283 287 291 293 293 294 295 296 297 302 305 306 301 301 303 301 296 295 294 291 290 289 286 280 275 272 269
241 238 234 232 231 231 232 233 236 239 243 246 251 260 269 282 282 289 292 294 294 297 301 299 293 295 295 300 299 298 296 298 294 295 296 292 292 293 291 285 280 274 267
236 233 231 231 230 230 231 234 236 239 242 245 252 261 276 278 286 288 292 289 283 287 289 290 288 287 293 295 297 296 293 294 294 295 291 289 287 287 287 284 276 272 270
232 229 228 228 229 230 231 234 236 239 241 245 252 268 268 276 286 292 289 289 289 287 282 286 286 286 292 295 297 295 291 289 287 290 288 287 285 281 282 286 279 272 271
229 227 227 227 227 227 229 232 235 238 239 246 258 262 268 277 287 288 295 298 301 301 301 297 292 292 291 294 293 292 293 288 285 283 291 281 287 280 282 285 283 277 275
225 225 226 227 227 225 226 228 231 232 236 247 257 262 269 283 285 294 297 300 300 299 301 297 291 291 291 289 290 287 283 287 285 285 285 275 283 281 281 283 282 278 277
228 225 225 225 227 225 224 226 227 227 236 246 252 259 273 287 296 295 301 296 292 303 306 307 305 302 304 306 310 291 288 284 285 288 284 279 280 279 284 283 276 277 283
Wind_Speed_850mb
32 29 26 25 26 24 24 24 25 26 26 27 28 27 25 24 23 24 23 27 28 28 29 29 31 32 34 35 34 36 38 41 45 52 49 49 47 44 41 41 43 47 50
38 36 32 29 28 26 26 27 28 28 29 29 27 24 23 22 22 23 23 24 28 30 30 29 30 30 30 31 31 33 35 36 40 42 52 60 56 52 48 46 45 45 50
44 40 37 35 32 29 29 30 30 30 30 30 28 24 23 22 21 21 19 17 19 24 27 26 23 17 16 19 21 22 25 30 33 39 44 47 60 62 58 55 51 50 48
49 45 41 38 34 32 33 33 32 31 31 31 28 26 24 22 20 15 17 14 15 18 18 16 14 18 21 18 16 18 24 28 34 37 43 46 45 55 66 64 60 55 54
53 49 45 43 38 37 37 36 35 34 34 34 34 30 28 25 16 13 3 1 12 12 16 21 21 23 22 34 26 37 40 37 37 38 40 42 48 51 54 67 72 68 60
57 55 52 48 42 40 39 36 35 35 37 39 40 37 34 26 16 2 4 24 21 16 18 23 22 21 23 32 45 47 47 46 47 44 44 44 45 48 52 58 65 75 76
63 60 57 52 47 43 40 38 35 34 35 39 43 41 33 16 10 3 37 16 30 19 19 22 22 34 42 46 50 53 50 49 51 51 49 48 48 49 52 55 55 64 75
69 66 62 56 50 47 44 39 35 34 35 35 36 43 20 26 10 41 20 36 12 37 27 31 42 49 59 55 53 53 53 54 53 53 54 56 55 54 54 55 57 62 63
73 70 64 60 55 51 45 40 36 35 34 33 30 22 14 11 54 21 43 27 51 37 42 47 52 54 50 53 52 49 48 52 54 54 55 54 57 60 62 64 64 66 63
77 74 69 64 59 54 49 43 39 38 37 34 31 29 27 32 26 35 44 56 54 62 60 59 57 60 57 53 52 56 55 54 57 59 63 64 64 66 66 68 70 72 72
80 76 72 67 65 60 55 50 44 41 39 36 33 31 31 33 34 33 63 72 73 71 72 71 74 70 67 63 63 60 65 71 74 79 80 80 78 76 73 73 74 76 77
83 80 76 73 69 64 59 52 47 43 40 37 35 34 34 35 37 35 46 66 70 77 82 80 78 80 74 70 69 71 84 86 88 92 94 93 92 89 86 81 80 80 82
89 88 81 78 74 67 61 55 50 45 41 38 37 37 38 40 39 41 50 64 69 84 83 86 79 84 75 74 76 90 95 97 97 100 102 102 100 98 97 92 88 85 85
84 79 78 77 73 69 65 60 54 46 41 40 40 40 39 42 42 43 45 54 79 77 85 59 80 77 62 87 97 96 102 104 104 104 106 109 109 110 109 94 95 98 96
82 78 75 76 74 72 68 62 55 48 44 44 44 44 44 44 43 43 43 46 50 57 79 57 71 75 99 103 102 105 106 108 108 110 112 113 116 117 112 107 92 89 87
82 79 76 78 77 74 69 64 58 52 48 47 46 46 46 46 46 44 45 48 51 60 84 89 101 107 106 110 110 112 115 115 115 115 114 113 111 109 109 100 92 90 90
83 77 77 81 82 77 73 67 60 56 52 49 48 48 47 47 45 45 49 52 56 62 87 126 109 112 114 116 114 113 117 119 120 116 110 102 99 97 89 92 93 92 93
89 79 77 80 81 79 74 69 65 59 53 51 50 48 46 47 46 47 52 56 61 65 77 110 121 117 120 116 115 117 118 118 114 114 110 92 86 87 93 92 91 90 91
92 83 80 82 83 82 78 73 67 62 56 52 50 49 46 45 48 49 53 60 64 69 76 90 122 115 117 114 116 116 115 111 112 104 91 90 88 86 88 87 87 87 87
92 86 84 84 84 84 81 76 71 64 59 53 51 48 45 47 48 50 54 59 64 69 73 84 103 116 112 107 96 100 112 103 106 99 101 97 95 97 90 89 89 92 94
91 86 85 85 86 87 85 80 72 65 59 52 49 45 46 45 49 49 54 57 61 65 68 80 92 102 104 101 94 99 108 115 114 93 103 103 103 104 105 86 84 74 71
89 86 85 87 89 89 84 79 69 61 58 52 46 43 44 50 49 48 50 51 49 54 64 76 86 92 115 101 103 108 110 110 127 101 87 103 95 109 105 96 88 88 86
88 86 88 88 89 87 80 74 68 62 57 50 44 44 52 48 46 50 52 54 48 52 57 66 85 94 110 104 107 115 113 112 128 124 103 119 106 110 108 112 92 89 96
87 88 90 89 87 83 80 75 68 62 54 45 43 52 47 45 43 50 51 53 58 63 67 69 81 89 95 101 98 106 116 114 121 123 89 105 109 108 106 110 96 89 87
89 91 90 88 87 84 84 77 69 59 49 42 51 48 44 39 43 43 43 52 61 71 73 68 73 77 77 85 94 96 108 100 116 124 89 90 111 102 98 108 99 90 87
84 84 84 85 84 81 80 73 67 55 45 53 49 43 34 37 40 36 41 53 68 68 70 73 80 86 87 84 77 66 76 90 95 112 77 76 92 89 98 84 73 77 90
Wind_Direction_850mb
234 239 243 251 258 266 275 284 293 302 308 309 305 302 298 295 293 287 288 289 287 282 279 280 280 275 274 275 276 276 278 276 267 253 248 247 245 245 247 254 260 262 261
235 238 243 250 255 259 268 277 285 294 303 307 308 305 301 298 296 292 291 290 289 287 284 283 284 290 291 292 291 289 285 281 279 272 260 256 253 253 252 254 254 259 262
237 239 244 249 254 262 269 277 284 293 301 309 317 313 306 303 297 297 296 290 286 284 282 280 282 288 300 299 307 305 302 292 287 279 273 262 255 249 248 250 256 257 260
236 239 243 248 252 259 267 274 281 289 299 310 320 321 317 311 306 306 296 290 292 288 282 278 283 295 302 304 300 300 305 291 289 287 281 277 271 260 251 246 247 250 254
235 238 241 245 250 257 264 272 279 288 297 306 313 322 321 313 307 310 214 150 322 301 287 294 294 312 306 311 301 317 317 306 299 296 289 287 281 272 264 252 249 248 250
235 238 240 243 247 254 261 268 277 286 295 303 310 319 323 314 313 220 314 318 326 335 311 298 293 300 311 304 302 306 306 308 300 297 291 285 281 283 278 269 259 253 248
236 237 239 241 244 252 259 266 276 288 298 305 310 312 321 306 286 202 330 335 325 345 316 303 300 304 304 301 302 303 303 301 298 298 293 290 286 282 279 280 272 263 255
235 236 238 240 241 246 253 263 273 285 293 303 315 325 329 317 254 317 306 325 328 335 319 304 304 305 307 304 305 304 305 305 305 304 300 296 293 291 285 280 274 270 266
234 236 237 239 241 245 250 258 268 277 286 297 309 321 327 308 317 314 315 318 321 321 314 309 307 307 307 308 308 308 307 306 307 308 305 302 298 294 289 287 285 275 271
235 236 237 238 240 244 248 253 259 268 277 286 296 303 301 301 314 312 307 312 317 318 317 317 317 317 319 319 316 315 315 316 316 315 313 309 303 299 294 288 286 284 279
236 237 238 238 239 241 244 248 255 263 271 278 286 291 292 296 294 286 300 313 314 318 319 320 320 320 320 318 318 318 322 322 319 317 315 312 309 304 298 293 289 284 281
237 237 237 238 238 239 243 248 253 259 266 272 277 284 289 291 293 290 287 298 305 313 316 317 317 318 319 319 322 324 322 320 319 316 314 311 309 306 301 296 289 283 280
235 236 235 236 236 238 240 243 249 257 266 273 278 281 285 288 289 290 293 302 305 309 316 314 314 316 319 319 321 323 319 318 315 312 311 309 307 303 301 297 291 285 277
241 240 238 237 237 237 237 239 244 250 260 269 274 278 278 283 286 291 296 303 310 311 313 314 319 315 314 315 318 317 313 310 309 307 305 304 301 300 297 293 289 285 280
243 241 241 240 237 236 237 239 242 246 253 261 268 271 276 280 283 289 294 298 301 303 306 304 310 309 308 309 312 313 309 305 303 301 301 301 300 297 293 291 285 281 277
243 240 239 238 235 236 237 238 240 244 249 255 261 265 272 276 281 288 292 295 295 296 294 297 299 303 305 308 312 310 307 305 303 304 303 301 297 293 290 287 283 279 275
245 241 237 235 235 236 237 236 238 243 248 254 260 262 269 275 283 290 292 293 294 295 293 299 301 304 305 308 307 306 305 305 306 306 305 302 294 290 289 284 280 275 273
243 241 236 234 235 237 237 238 239 243 246 252 257 262 269 276 283 287 291 293 294 294 294 297 300 303 303 306 308 308 308 307 305 307 307 301 293 290 288 283 278 275 273
242 239 235 234 235 235 236 236 240 242 246 251 255 262 270 276 282 286 290 293 294 294 295 295 297 301 303 308 312 309 306 304 304 303 296 293 291 289 286 281 276 273 272
240 237 236 235 234 234 234 235 237 241 245 247 252 260 269 276 283 287 291 293 293 294 295 296 297 302 305 306 301 301 303 301 296 295 294 291 290 289 286 280 275 272 269
241 238 234 232 231 231 232 233 236 239 243 246 251 260 269 282 282 289 292 294 294 297 301 299 293 295 295 300 299 298 296 298 294 295 296 292 292 293 291 285 280 274 267
236 233 231 231 230 230 231 234 236 239 242 245 252 261 276 278 286 288 292 289 283 287 289 290 288 287 293 295 297 296 293 294 294 295 291 289 287 287 287 284 276 272 270
232 229 228 228 229 230 231 234 236 239 241 245 252 268 268 276 286 292 289 289 289 287 282 286 286 286 292 295 297 295 291 289 287 290 288 287 285 281 282 286 279 272 271
229 227 227 227 227 227 229 232 235 238 239 246 258 262 268 277 287 288 295 298 301 301 301 297 292 292 291 294 293 292 293 288 285 283 291 281 287 280 282 285 283 277 275
225 225 226 227 227 225 226 228 231 232 236 247 257 262 269 283 285 294 297 300 300 299 301 297 291 291 291 289 290 287 283 287 285 285 285 275 283 281 281 283 282 278 277
228 225 225 225 227 225 224 226 227 227 236 246 252 259 273 287 296 295 301 296 292 303 306 307 305 302 304 306 310 291 288 284 285 288 284 279 280 279 284 283 276 277 283